GW7197 Weather Reports


time (UTC)temp
C
wind
direction
speed
KPH
gust
KPH
rain 1hr
cm
rain 24hr
cm
rain mn
cm
humidity
%
barometer
mb
20260507190951 25 255 0.0 0.0 0.00 0.00 0.00 75 1020.0
20260507190449 25 229 0.0 0.0 0.00 0.00 0.00 75 1020.0
20260507185948 26 249 0.0 0.0 0.00 0.00 0.00 75 1020.2
20260507185445 25 236 0.0 0.0 0.00 0.00 0.00 78 1020.2
20260507184941 25 293 0.0 0.0 0.00 0.00 0.00 78 1020.2
20260507184439 25 265 0.0 0.0 0.00 0.00 0.00 77 1020.1
20260507183937 25 229 0.0 0.0 0.00 0.00 0.00 79 1019.8
20260507183434 25 229 0.0 0.0 0.00 0.00 0.00 79 1020.0
20260507182931 25 257 0.0 0.0 0.00 0.00 0.00 79 1020.2
20260507182427 25 226 0.0 0.0 0.00 0.00 0.00 78 1020.1
20260507181923 25 227 0.0 0.0 0.00 0.00 0.00 79 1020.1
20260507181419 24 274 0.0 0.0 0.00 0.00 0.00 81 1019.8
20260507180916 23 229 0.0 0.0 0.00 0.00 0.00 81 1019.8
20260507180413 24 239 0.0 0.0 0.00 0.00 0.00 81 1019.8
20260507175908 24 232 0.0 0.0 0.00 0.00 0.00 83 1019.9
20260507175405 23 227 0.0 0.0 0.00 0.00 0.00 84 1019.7
20260507174903 23 235 0.0 0.0 0.00 0.00 0.00 83 1019.8
20260507174400 23 230 0.0 0.0 0.00 0.00 0.00 85 1019.7
20260507173858 23 225 0.0 0.0 0.00 0.00 0.00 87 1019.7
20260507173355 22 227 0.0 0.0 0.00 0.00 0.00 87 1019.6
20260507172851 22 219 0.0 0.0 0.00 0.00 0.00 87 1019.9
20260507172348 22 226 0.0 0.0 0.00 0.00 0.00 88 1019.5
20260507171844 22 224 0.0 0.0 0.00 0.00 0.00 90 1019.4
20260507171340 21 218 0.0 0.0 0.00 0.00 0.00 90 1019.4
20260507170838 21 221 0.0 0.0 0.00 0.00 0.00 91 1019.6
20260507170334 21 219 0.0 0.0 0.00 0.00 0.00 91 1019.3
20260507165830 20 212 0.0 0.0 0.00 0.00 0.00 91 1019.2
20260507165326 20 232 0.0 0.0 0.00 0.00 0.00 91 1019.1
20260507164822 20 214 0.0 0.0 0.00 0.00 0.00 92 1019.1
20260507164319 20 159 0.0 0.0 0.00 0.00 0.00 91 1019.0
20260507163817 19 252 0.0 0.0 0.00 0.00 0.00 92 1018.8
20260507163314 19 215 0.0 1.6 0.00 0.00 0.00 91 1018.7
20260507162810 19 218 0.0 0.0 0.00 0.00 0.00 92 1018.8
20260507162307 18 216 0.0 1.6 0.00 0.00 0.00 92 1018.7
20260507161803 18 212 1.6 1.6 0.00 0.00 0.00 92 1018.6
20260507161300 18 216 0.0 0.0 0.00 0.00 0.00 91 1018.6
20260507160756 18 217 0.0 1.6 0.00 0.00 0.00 91 1018.4
20260507160252 18 214 0.0 1.6 0.00 0.00 0.00 91 1018.3
20260507155748 18 213 0.0 1.6 0.00 0.00 0.00 91 1018.3
20260507155244 18 215 0.0 1.6 0.00 0.00 0.00 91 1018.3
20260507154741 18 216 0.0 1.6 0.00 0.00 0.00 91 1018.3
20260507154239 18 195 1.6 1.6 0.00 0.00 0.00 91 1018.2
20260507153735 19 219 0.0 1.6 0.00 0.00 0.00 91 1018.2
20260507153231 18 208 1.6 3.2 0.00 0.00 0.00 91 1018.2
20260507152728 19 216 1.6 3.2 0.00 0.00 0.00 91 1018.1
20260507152224 19 215 1.6 3.2 0.00 0.00 0.00 91 1018.0
20260507151720 19 219 0.0 1.6 0.00 0.00 0.00 91 1018.0
20260507151217 19 212 1.6 3.2 0.00 0.00 0.00 91 1017.9
20260507150714 19 211 0.0 1.6 0.00 0.00 0.00 91 1017.8
20260507150211 19 182 3.2 4.8 0.00 0.00 0.00 91 1017.9
20260507145706 19 211 1.6 1.6 0.00 0.00 0.00 90 1017.8
20260507145203 19 213 1.6 1.6 0.00 0.00 0.00 90 1017.6
20260507144700 20 222 0.0 0.0 0.00 0.00 0.00 90 1017.6
20260507144158 20 210 0.0 1.6 0.00 0.00 0.00 90 1017.6
20260507143655 20 211 0.0 1.6 0.00 0.00 0.00 90 1017.5
20260507143152 20 218 0.0 1.6 0.00 0.00 0.00 90 1017.6
20260507142647 20 220 0.0 0.0 0.00 0.00 0.00 90 1017.7
20260507142144 20 214 0.0 1.6 0.00 0.00 0.00 90 1017.5
20260507141641 20 211 1.6 1.6 0.00 0.00 0.00 90 1017.6
20260507141138 20 217 0.0 0.0 0.00 0.00 0.00 90 1017.6
20260507140634 20 215 0.0 0.0 0.00 0.00 0.00 89 1017.7
20260507140131 20 217 0.0 0.0 0.00 0.00 0.00 89 1017.6
20260507135628 20 217 0.0 0.0 0.00 0.00 0.00 89 1017.7
20260507135126 20 217 0.0 0.0 0.00 0.00 0.00 89 1017.6
20260507134622 20 217 0.0 0.0 0.00 0.00 0.00 89 1017.6
20260507134118 20 216 0.0 0.0 0.00 0.00 0.00 89 1017.8
20260507133614 20 216 0.0 0.0 0.00 0.00 0.00 89 1017.6
20260507133112 20 215 0.0 0.0 0.00 0.00 0.00 89 1017.6
20260507132608 20 215 0.0 0.0 0.00 0.00 0.00 89 1017.7
20260507132105 20 212 0.0 1.6 0.00 0.00 0.00 89 1017.6
20260507131602 20 223 0.0 0.0 0.00 0.00 0.00 89 1017.7
20260507131059 20 218 0.0 0.0 0.00 0.00 0.00 89 1017.8
20260507130556 20 221 0.0 0.0 0.00 0.00 0.00 88 1017.5
20260507130054 20 220 0.0 0.0 0.00 0.00 0.00 88 1017.9
20260507125553 20 218 0.0 0.0 0.00 0.00 0.00 88 1017.9
20260507125050 20 218 0.0 0.0 0.00 0.00 0.00 88 1018.1
20260507124546 20 219 0.0 0.0 0.00 0.00 0.00 88 1018.0
20260507124044 20 211 1.6 1.6 0.00 0.00 0.00 88 1018.0
20260507123542 20 216 0.0 1.6 0.00 0.00 0.00 88 1018.1
20260507123038 20 215 0.0 0.0 0.00 0.00 0.00 88 1018.1
20260507122533 20 131 0.0 1.6 0.00 0.00 0.00 88 1018.2
20260507122029 20 130 0.0 0.0 0.00 0.00 0.00 88 1018.3
20260507121525 21 130 0.0 1.6 0.00 0.00 0.00 87 1018.3
20260507121021 21 129 0.0 1.6 0.00 0.00 0.00 87 1018.3
20260507120518 21 129 0.0 1.6 0.00 0.00 0.00 87 1018.4
20260507120015 21 129 0.0 0.0 0.00 0.00 0.00 87 1018.4
20260507115511 21 129 0.0 0.0 0.00 0.00 0.00 87 1018.3
20260507115007 21 129 1.6 3.2 0.00 0.00 0.00 87 1018.4
20260507114503 21 128 0.0 1.6 0.00 0.00 0.00 86 1018.5
20260507114000 21 128 1.6 1.6 0.00 0.00 0.00 86 1018.6
20260507113457 21 128 0.0 0.0 0.00 0.00 0.00 86 1018.5
20260507112954 21 128 0.0 0.0 0.00 0.00 0.00 86 1018.7
20260507112452 21 128 0.0 0.0 0.00 0.00 0.00 86 1018.6
20260507111948 21 128 0.0 0.0 0.00 0.00 0.00 85 1018.7
20260507111446 21 128 0.0 1.6 0.00 0.00 0.00 85 1018.8
20260507110942 21 127 1.6 1.6 0.00 0.00 0.00 85 1018.7
20260507110438 21 127 0.0 1.6 0.00 0.00 0.00 85 1018.9
20260507105935 21 127 1.6 1.6 0.00 0.00 0.00 85 1018.7
20260507105432 21 127 1.6 3.2 0.00 0.00 0.00 85 1019.0
20260507104929 21 127 1.6 4.8 0.00 0.00 0.00 85 1019.0
20260507104426 21 126 3.2 3.2 0.00 0.00 0.00 85 1019.0
20260507103926 21 125 0.0 1.6 0.00 0.00 0.00 85 1019.0
20260507103424 21 125 3.2 3.2 0.00 0.00 0.00 85 1019.0
20260507102920 21 125 3.2 4.8 0.00 0.00 0.00 85 1019.1
20260507102417 21 125 3.2 4.8 0.00 0.00 0.00 85 1019.1
20260507101913 21 124 1.6 3.2 0.00 0.00 0.00 85 1019.1
20260507101408 21 124 1.6 1.6 0.00 0.00 0.00 85 1019.1
20260507100905 21 123 0.0 0.0 0.00 0.00 0.00 84 1019.2
20260507100403 21 123 0.0 1.6 0.00 0.00 0.00 84 1019.3
20260507095901 21 123 1.6 1.6 0.00 0.00 0.00 84 1019.5
20260507095357 21 123 0.0 1.6 0.00 0.00 0.00 84 1019.3
20260507094855 21 123 0.0 0.0 0.00 0.00 0.00 84 1019.4
20260507094351 21 123 3.2 4.8 0.00 0.00 0.00 84 1019.5
20260507093848 21 122 0.0 1.6 0.00 0.00 0.00 84 1019.5
20260507093346 21 122 3.2 3.2 0.00 0.00 0.00 84 1019.7
20260507092844 21 122 3.2 4.8 0.00 0.00 0.00 84 1019.5
20260507092340 21 121 0.0 1.6 0.00 0.00 0.00 84 1019.5
20260507091836 21 121 0.0 1.6 0.00 0.00 0.00 84 1019.5
20260507091333 21 121 3.2 4.8 0.00 0.00 0.00 84 1019.6
20260507090829 21 121 0.0 0.0 0.00 0.00 0.00 84 1019.8
20260507090325 21 120 1.6 3.2 0.00 0.00 0.00 84 1019.7
20260507085822 21 89 0.0 0.0 0.00 0.00 0.00 84 1019.8
20260507085319 21 89 0.0 4.8 0.00 0.00 0.00 84 1019.7
20260507084817 21 89 3.2 3.2 0.00 0.00 0.00 84 1019.6
20260507084313 21 89 0.0 0.0 0.00 0.00 0.00 83 1019.7
20260507083810 21 89 1.6 3.2 0.00 0.00 0.00 83 1019.6
20260507083307 22 89 3.2 3.2 0.00 0.00 0.00 83 1019.7
20260507082803 22 89 1.6 4.8 0.00 0.00 0.00 83 1019.5
20260507082259 22 89 0.0 1.6 0.00 0.00 0.00 83 1019.6
20260507081756 22 89 3.2 4.8 0.00 0.00 0.00 83 1019.9
20260507081252 22 89 1.6 4.8 0.00 0.00 0.00 83 1019.6
20260507080748 22 89 1.6 3.2 0.00 0.00 0.00 83 1019.8
20260507080245 22 89 1.6 1.6 0.00 0.00 0.00 83 1019.5
20260507075740 22 89 1.6 4.8 0.00 0.00 0.00 83 1019.5
20260507075237 22 88 1.6 3.2 0.00 0.00 0.00 82 1019.6
20260507074733 22 88 1.6 3.2 0.00 0.00 0.00 82 1019.5
20260507074231 22 88 1.6 3.2 0.00 0.00 0.00 82 1019.5
20260507073727 22 88 1.6 1.6 0.00 0.00 0.00 82 1019.5
20260507073224 22 88 0.0 1.6 0.00 0.00 0.00 81 1019.6
20260507072722 22 88 1.6 1.6 0.00 0.00 0.00 81 1019.5
20260507072219 22 88 0.0 0.0 0.00 0.00 0.00 81 1019.5
20260507071717 22 87 1.6 1.6 0.00 0.00 0.00 81 1019.2
20260507071213 22 87 1.6 3.2 0.00 0.00 0.00 80 1019.4
20260507070710 22 87 1.6 1.6 0.00 0.00 0.00 80 1019.3
20260507070207 22 87 1.6 3.2 0.00 0.00 0.00 80 1019.2
20260507065703 23 87 0.0 3.2 0.00 0.00 0.00 80 1019.2
20260507065200 23 87 1.6 3.2 0.00 0.00 0.00 80 1019.0
20260507064657 23 87 1.6 1.6 0.00 0.00 0.00 79 1019.0
20260507064156 23 87 1.6 1.6 0.00 0.00 0.00 79 1019.1
20260507063653 23 87 1.6 3.2 0.00 0.00 0.00 79 1018.9
20260507063150 23 87 0.0 1.6 0.00 0.00 0.00 79 1018.9
20260507062647 23 87 1.6 3.2 0.00 0.00 0.00 79 1019.0
20260507062144 23 87 3.2 3.2 0.00 0.00 0.00 79 1018.7
20260507061642 23 75 3.2 3.2 0.00 0.00 0.00 79 1018.7
20260507061140 23 74 1.6 4.8 0.00 0.00 0.00 78 1018.7
20260507060638 23 61 1.6 3.2 0.00 0.00 0.00 78 1018.4
20260507060134 23 61 0.0 1.6 0.00 0.00 0.00 78 1018.4
20260507055629 23 61 1.6 3.2 0.00 0.00 0.00 78 1018.3
20260507055125 23 55 1.6 3.2 0.00 0.00 0.00 78 1018.2
20260507054621 23 56 3.2 3.2 0.00 0.00 0.00 78 1018.2
20260507054119 23 41 3.2 6.4 0.00 0.00 0.00 78 1018.3
20260507053617 23 49 3.2 4.8 0.00 0.00 0.00 78 1018.2
20260507053115 23 346 1.6 6.4 0.00 0.00 0.00 78 1017.9
20260507052613 23 5 3.2 4.8 0.00 0.00 0.00 78 1018.1
20260507052109 23 354 1.6 4.8 0.00 0.00 0.00 78 1017.9
20260507051607 23 349 1.6 6.4 0.00 0.00 0.00 78 1018.0
20260507051103 23 349 9.7 11.3 0.00 0.00 0.00 77 1018.0
20260507050600 23 335 3.2 12.9 0.00 0.00 0.00 78 1017.8
20260507050056 23 347 4.8 6.4 0.00 0.00 0.00 78 1017.8
20260507045553 23 341 1.6 11.3 0.00 0.00 0.00 77 1017.7
20260507045051 24 16 6.4 9.7 0.00 0.00 0.00 77 1017.7
20260507044547 24 339 4.8 9.7 0.00 0.00 0.00 77 1017.7
20260507044044 24 346 11.3 14.5 0.00 0.00 0.00 77 1017.6
20260507043539 24 36 4.8 11.3 0.00 0.00 0.00 77 1017.6
20260507043037 24 331 4.8 16.1 0.00 0.00 0.00 78 1017.6
20260507042533 24 337 8.0 14.5 0.00 0.00 0.00 77 1017.6
20260507042029 24 41 3.2 9.7 0.00 0.00 0.00 77 1017.3
20260507041526 24 356 8.0 11.3 0.00 0.00 0.00 77 1017.4
20260507041023 24 3 9.7 14.5 0.00 0.00 0.00 78 1017.2
20260507040519 24 356 8.0 14.5 0.00 0.00 0.00 77 1017.2
20260507040015 24 348 16.1 17.7 0.00 0.00 0.00 77 1017.2
20260507035511 24 355 14.5 20.9 0.00 0.00 0.00 77 1017.2
20260507035008 24 34 14.5 17.7 0.00 0.00 0.00 77 1017.0
20260507034505 24 3 17.7 20.9 0.00 0.00 0.00 77 1017.0
20260507034003 24 5 12.9 14.5 0.00 0.00 0.00 78 1017.1
20260507033500 24 325 12.9 17.7 0.00 0.00 0.00 78 1016.9
20260507032957 24 351 14.5 22.5 0.00 0.00 0.00 77 1016.8
20260507032454 24 353 17.7 22.5 0.00 0.00 0.00 77 1016.9
20260507031950 24 358 17.7 20.9 0.00 0.00 0.00 78 1016.8
20260507031447 24 1 17.7 22.5 0.00 0.00 0.00 77 1016.8
20260507030944 24 340 14.5 16.1 0.00 0.00 0.00 77 1016.8
20260507030441 24 346 14.5 20.9 0.00 0.00 0.00 77 1016.6
20260507025938 24 339 12.9 20.9 0.00 0.00 0.00 78 1016.7
20260507025435 24 5 16.1 20.9 0.00 0.00 0.00 78 1016.5
20260507024933 24 340 14.5 17.7 0.00 0.00 0.00 78 1016.6
20260507024430 24 340 14.5 22.5 0.00 0.00 0.00 79 1016.4
20260507023926 24 1 14.5 22.5 0.00 0.00 0.00 79 1016.6
20260507023423 24 3 17.7 20.9 0.00 0.00 0.00 78 1016.6
20260507022920 24 354 17.7 22.5 0.00 0.00 0.00 79 1016.5
20260507022417 24 9 20.9 24.1 0.00 0.00 0.00 78 1016.6
20260507021913 24 347 17.7 20.9 0.00 0.00 0.00 78 1016.4
20260507021408 24 354 17.7 24.1 0.00 0.00 0.00 78 1016.4
20260507020906 24 9 17.7 22.5 0.00 0.00 0.00 78 1016.6
20260507020402 24 5 20.9 24.1 0.00 0.00 0.00 78 1016.7
20260507015859 24 19 16.1 22.5 0.00 0.00 0.00 78 1016.8
20260507015358 24 350 17.7 24.1 0.00 0.00 0.00 78 1016.8
20260507014854 24 355 17.7 22.5 0.00 0.00 0.00 78 1016.8
20260507014350 24 338 19.3 22.5 0.00 0.00 0.00 78 1016.7
20260507013847 25 348 17.7 22.5 0.00 0.00 0.00 78 1016.6
20260507013344 24 344 17.7 20.9 0.00 0.00 0.00 78 1016.6
20260507012842 25 5 19.3 24.1 0.00 0.00 0.00 78 1016.7
20260507012337 24 334 17.7 22.5 0.00 0.00 0.00 78 1016.8
20260507011835 24 352 20.9 24.1 0.00 0.00 0.00 78 1016.7
20260507011332 24 347 16.1 22.5 0.00 0.00 0.00 79 1016.7
20260507010831 24 340 19.3 20.9 0.00 0.00 0.00 77 1016.7
20260507010327 24 350 16.1 20.9 0.00 0.00 0.00 77 1016.9
20260507005825 24 355 17.7 24.1 0.00 0.00 0.00 78 1016.9
20260507005321 24 340 17.7 20.9 0.00 0.00 0.00 78 1017.0
20260507004818 24 357 19.3 20.9 0.00 0.00 0.00 79 1016.9
20260507004316 24 343 20.9 22.5 0.00 0.00 0.00 79 1017.0
20260507003813 25 334 17.7 20.9 0.00 0.00 0.00 79 1017.0
20260507003308 24 332 17.7 22.5 0.00 0.00 0.00 79 1017.2
20260507002803 24 345 19.3 24.1 0.00 0.00 0.00 79 1017.2
20260507002259 25 339 17.7 20.9 0.00 0.00 0.00 79 1017.2
20260507001757 25 354 22.5 25.7 0.00 0.00 0.00 79 1017.2
20260507001254 25 347 17.7 20.9 0.00 0.00 0.00 78 1017.4
20260507000750 25 8 19.3 24.1 0.00 0.00 0.00 78 1017.4
20260507000246 25 350 22.5 24.1 0.00 0.00 0.00 78 1017.3
20260506235743 25 355 17.7 22.5 0.00 0.00 0.00 79 1017.5
20260506235238 25 338 19.3 22.5 0.00 0.00 0.00 78 1017.5
20260506234736 25 346 20.9 24.1 0.00 0.00 0.00 79 1017.3
20260506234233 25 7 19.3 24.1 0.00 0.00 0.00 78 1017.5
20260506233730 25 351 17.7 22.5 0.00 0.00 0.00 79 1017.5
20260506233226 25 341 16.1 22.5 0.00 0.00 0.00 79 1017.5
20260506232723 25 338 17.7 24.1 0.00 0.00 0.00 80 1017.4
20260506232218 25 351 20.9 24.1 0.00 0.00 0.00 79 1017.7
20260506231716 25 355 20.9 25.7 0.00 0.00 0.00 79 1017.6
20260506231214 25 346 17.7 22.5 0.00 0.00 0.00 79 1017.5
20260506230710 25 354 19.3 24.1 0.00 0.00 0.00 79 1017.4
20260506230207 25 355 20.9 24.1 0.00 0.00 0.00 78 1017.5
20260506225704 25 350 20.9 25.7 0.00 0.00 0.00 78 1017.6
20260506225201 25 343 20.9 24.1 0.00 0.00 0.00 78 1017.5
20260506224657 25 16 20.9 24.1 0.00 0.00 0.00 79 1017.6
20260506224154 25 351 19.3 22.5 0.00 0.00 0.00 81 1017.7
20260506223650 25 349 19.3 24.1 0.00 0.00 0.00 80 1017.7
20260506223146 25 353 20.9 24.1 0.00 0.00 0.00 80 1017.9
20260506222643 25 355 19.3 22.5 0.00 0.00 0.00 80 1017.6
20260506222139 25 9 22.5 24.1 0.00 0.00 0.00 80 1017.8
20260506221637 25 343 19.3 25.7 0.00 0.00 0.00 80 1017.8
20260506221135 25 350 20.9 24.1 0.00 0.00 0.00 80 1017.8
20260506220631 25 340 20.9 25.7 0.00 0.00 0.00 80 1017.8
20260506220127 25 1 20.9 24.1 0.00 0.00 0.00 80 1017.9
20260506215624 25 341 17.7 25.7 0.00 0.00 0.00 81 1017.9
20260506215119 25 342 20.9 24.1 0.00 0.00 0.00 81 1017.8
20260506214616 25 8 20.9 24.1 0.00 0.00 0.00 81 1018.0
20260506214114 25 345 19.3 22.5 0.00 0.00 0.00 80 1018.1
20260506213612 25 347 17.7 20.9 0.00 0.00 0.00 80 1018.1
20260506213108 25 357 16.1 20.9 0.00 0.00 0.00 80 1018.1
20260506212606 25 340 16.1 17.7 0.00 0.00 0.00 79 1018.1
20260506212100 25 320 14.5 17.7 0.00 0.00 0.00 80 1018.2
20260506211556 25 352 17.7 20.9 0.00 0.00 0.00 80 1018.2
20260506211053 25 355 16.1 20.9 0.00 0.00 0.00 79 1018.3
20260506210550 25 313 16.1 16.1 0.00 0.00 0.00 80 1018.2
20260506210047 25 345 17.7 17.7 0.00 0.00 0.00 80 1018.4
20260506205543 25 350 17.7 20.9 0.00 0.00 0.00 81 1018.2
20260506205038 25 352 17.7 20.9 0.00 0.00 0.00 80 1018.2
20260506204537 25 347 17.7 20.9 0.00 0.00 0.00 81 1018.1
20260506204034 25 346 16.1 20.9 0.00 0.00 0.00 81 1018.0
20260506203532 25 348 14.5 20.9 0.00 0.00 0.00 81 1018.4
20260506203028 25 332 17.7 20.9 0.00 0.00 0.00 81 1018.3
20260506202526 25 1 19.3 22.5 0.00 0.00 0.00 82 1018.2
20260506202021 25 354 17.7 17.7 0.00 0.00 0.00 82 1018.1
20260506201520 25 348 16.1 20.9 0.00 0.00 0.00 82 1018.2
20260506201016 25 342 19.3 20.9 0.00 0.00 0.00 81 1018.4
20260506200512 25 357 17.7 20.9 0.00 0.00 0.00 81 1018.3
20260506200009 25 25 9.7 11.3 0.00 0.00 0.00 81 1018.3
20260506195506 25 348 14.5 14.5 0.00 0.00 0.00 80 1018.1
20260506195002 25 324 12.9 16.1 0.00 0.00 0.00 80 1018.3
20260506194500 25 335 12.9 14.5 0.00 0.00 0.00 81 1018.2
20260506193956 25 343 11.3 14.5 0.00 0.00 0.00 81 1018.2
20260506193454 25 322 11.3 14.5 0.00 0.00 0.00 81 1018.1
20260506192950 25 346 9.7 12.9 0.00 0.00 0.00 82 1018.0
20260506192447 25 331 17.7 17.7 0.00 0.00 0.00 83 1018.1
20260506191943 24 320 12.9 14.5 0.00 0.00 0.00 83 1018.0
20260506191440 24 330 11.3 12.9 0.00 0.00 0.00 83 1018.0